When you browse on this site, cookies collect data to enhance your experience and personalize the content and advertising you see.
Visit our Privacy Policy to learn more. By continuing to use the site, you agree to this use of cookies and data.
  • In Österreich
  • Länderverzeichnis
  • Für 7 Tage
  • Wassertemperatur
  • Satellitenkarten
  • Wetterkarte
  • News
  • Widgets
  • user-avatar
    Anmelden

    Stündliche Wetter Dedovka

    Heute, 25 Mai, Samstag

    Zeit Temperatur Niederschläge Wind Luftdruck Luftfeuchtigkeit
    00:00 +15°C° 0 mm 2 m/S 744 mmHg 93%
    01:00 +15°C° 0 mm 2 m/S 744 mmHg 94%
    02:00 +14°C° 0 mm 1 m/S 744 mmHg 94%
    03:00 +14°C° 0 mm 1 m/S 744 mmHg 94%
    04:00 +14°C° 0 mm 1 m/S 744 mmHg 95%
    05:00 +14°C° 0 mm 2 m/S 744 mmHg 95%
    06:00 +16°C° 0 mm 2 m/S 744 mmHg 90%
    07:00 +17°C° 0 mm 2 m/S 744 mmHg 85%
    08:00 +19°C° 0 mm 2 m/S 744 mmHg 79%
    09:00 +20°C° 0 mm 3 m/S 744 mmHg 73%
    10:00 +21°C° 0 mm 3 m/S 744 mmHg 67%
    11:00 +22°C° 0 mm 4 m/S 744 mmHg 61%
    12:00 +23°C° 0.3 mm 4 m/S 744 mmHg 61%
    13:00 +23°C° 0.3 mm 4 m/S 744 mmHg 60%
    14:00 +23°C° 0.3 mm 4 m/S 744 mmHg 59%
    15:00 +23°C° 0.1 mm 4 m/S 744 mmHg 58%
    16:00 +23°C° 0.1 mm 4 m/S 744 mmHg 57%
    17:00 +22°C° 0.1 mm 4 m/S 744 mmHg 56%
    18:00 +21°C° 0 mm 3 m/S 744 mmHg 61%
    19:00 +19°C° 0 mm 2 m/S 744 mmHg 67%
    20:00 +17°C° 0 mm 2 m/S 744 mmHg 73%
    21:00 +16°C° 0 mm 2 m/S 744 mmHg 75%
    22:00 +15°C° 0 mm 2 m/S 745 mmHg 77%
    23:00 +14°C° 0 mm 2 m/S 745 mmHg 80%

    Morgen, 26 Mai, Sonntag

    Zeit Temperatur Niederschläge Wind Luftdruck Luftfeuchtigkeit
    00:00 +14°C° 0 mm 2 m/S 745 mmHg 83%
    01:00 +13°C° 0 mm 2 m/S 745 mmHg 86%
    02:00 +13°C° 0 mm 2 m/S 745 mmHg 89%
    03:00 +13°C° 0 mm 2 m/S 746 mmHg 91%
    04:00 +12°C° 0 mm 2 m/S 746 mmHg 93%
    05:00 +12°C° 0 mm 2 m/S 746 mmHg 94%
    06:00 +13°C° 0 mm 2 m/S 746 mmHg 86%
    07:00 +15°C° 0 mm 2 m/S 746 mmHg 77%
    08:00 +16°C° 0 mm 3 m/S 746 mmHg 68%
    09:00 +17°C° 0 mm 3 m/S 746 mmHg 65%
    10:00 +18°C° 0 mm 4 m/S 746 mmHg 61%
    11:00 +19°C° 0 mm 4 m/S 746 mmHg 58%
    12:00 +19°C° 0 mm 4 m/S 746 mmHg 58%
    13:00 +20°C° 0 mm 5 m/S 746 mmHg 57%
    14:00 +20°C° 0 mm 5 m/S 746 mmHg 57%
    15:00 +20°C° 0 mm 5 m/S 746 mmHg 58%
    16:00 +20°C° 0 mm 5 m/S 746 mmHg 58%
    17:00 +20°C° 0 mm 5 m/S 746 mmHg 58%
    18:00 +19°C° 0 mm 4 m/S 746 mmHg 64%
    19:00 +18°C° 0 mm 3 m/S 746 mmHg 71%
    20:00 +16°C° 0 mm 2 m/S 746 mmHg 77%
    21:00 +15°C° 0 mm 2 m/S 746 mmHg 81%
    22:00 +14°C° 0 mm 2 m/S 747 mmHg 85%
    23:00 +14°C° 0 mm 2 m/S 747 mmHg 89%

    übermorgen, 27 Mai, Montag

    Zeit Temperatur Niederschläge Wind Luftdruck Luftfeuchtigkeit
    00:00 +13°C° 0 mm 2 m/S 747 mmHg 91%
    01:00 +13°C° 0 mm 2 m/S 747 mmHg 93%
    02:00 +12°C° 0 mm 2 m/S 747 mmHg 94%
    03:00 +12°C° 0 mm 2 m/S 747 mmHg 94%
    04:00 +12°C° 0 mm 2 m/S 747 mmHg 94%
    05:00 +13°C° 0 mm 2 m/S 747 mmHg 95%
    06:00 +14°C° 0 mm 3 m/S 747 mmHg 86%
    07:00 +17°C° 0 mm 3 m/S 747 mmHg 77%
    08:00 +19°C° 0 mm 3 m/S 747 mmHg 68%
    09:00 +21°C° 0 mm 4 m/S 747 mmHg 62%
    10:00 +22°C° 0 mm 4 m/S 747 mmHg 57%
    11:00 +23°C° 0 mm 5 m/S 747 mmHg 52%
    12:00 +25°C° 0 mm 5 m/S 747 mmHg 50%
    13:00 +26°C° 0 mm 5 m/S 747 mmHg 49%
    14:00 +27°C° 0 mm 5 m/S 747 mmHg 48%
    15:00 +26°C° 0 mm 4 m/S 747 mmHg 51%
    16:00 +26°C° 0 mm 4 m/S 746 mmHg 54%
    17:00 +26°C° 0 mm 4 m/S 746 mmHg 57%
    18:00 +23°C° 0.1 mm 4 m/S 746 mmHg 66%
    19:00 +21°C° 0.1 mm 3 m/S 746 mmHg 75%
    20:00 +20°C° 0.1 mm 2 m/S 747 mmHg 84%
    21:00 +19°C° 0.2 mm 2 m/S 747 mmHg 87%
    22:00 +19°C° 0.2 mm 2 m/S 747 mmHg 89%
    23:00 +18°C° 0.2 mm 2 m/S 747 mmHg 92%

    28 Mai, Dienstag

    Zeit Temperatur Niederschläge Wind Luftdruck Luftfeuchtigkeit
    00:00 +18°C° 0 mm 2 m/S 747 mmHg 92%
    01:00 +18°C° 0 mm 2 m/S 747 mmHg 92%
    02:00 +17°C° 0 mm 2 m/S 747 mmHg 92%
    03:00 +17°C° 0 mm 2 m/S 747 mmHg 92%
    04:00 +17°C° 0 mm 2 m/S 747 mmHg 93%
    05:00 +17°C° 0 mm 2 m/S 747 mmHg 93%
    06:00 +18°C° 0 mm 2 m/S 747 mmHg 88%
    07:00 +20°C° 0 mm 2 m/S 747 mmHg 84%
    08:00 +21°C° 0 mm 3 m/S 747 mmHg 79%
    09:00 +24°C° 0.4 mm 3 m/S 746 mmHg 75%
    10:00 +25°C° 0.4 mm 4 m/S 746 mmHg 71%
    11:00 +27°C° 0.4 mm 4 m/S 746 mmHg 66%
    12:00 +27°C° 0.7 mm 4 m/S 745 mmHg 67%
    13:00 +27°C° 0.7 mm 5 m/S 745 mmHg 67%
    14:00 +27°C° 0.7 mm 5 m/S 745 mmHg 68%
    15:00 +27°C° 0.5 mm 5 m/S 744 mmHg 67%
    16:00 +27°C° 0.5 mm 5 m/S 744 mmHg 65%
    17:00 +27°C° 0.5 mm 5 m/S 744 mmHg 64%
    18:00 +25°C° 0 mm 4 m/S 744 mmHg 68%
    19:00 +23°C° 0 mm 4 m/S 744 mmHg 71%
    20:00 +21°C° 0 mm 4 m/S 744 mmHg 75%
    21:00 +21°C° 0 mm 4 m/S 744 mmHg 75%
    22:00 +21°C° 0 mm 4 m/S 744 mmHg 75%
    23:00 +20°C° 0 mm 5 m/S 744 mmHg 75%

    29 Mai, Mittwoch

    Zeit Temperatur Niederschläge Wind Luftdruck Luftfeuchtigkeit
    00:00 +20°C° 0 mm 4 m/S 744 mmHg 75%
    01:00 +19°C° 0 mm 4 m/S 744 mmHg 76%
    02:00 +18°C° 0 mm 4 m/S 744 mmHg 76%
    03:00 +18°C° 0 mm 4 m/S 744 mmHg 76%
    04:00 +17°C° 0 mm 4 m/S 744 mmHg 77%
    05:00 +17°C° 0 mm 4 m/S 743 mmHg 77%
    06:00 +18°C° 0 mm 4 m/S 744 mmHg 74%
    07:00 +19°C° 0 mm 5 m/S 744 mmHg 71%
    08:00 +20°C° 0 mm 5 m/S 744 mmHg 68%
    09:00 +22°C° 0 mm 5 m/S 744 mmHg 66%
    10:00 +23°C° 0 mm 5 m/S 744 mmHg 63%
    11:00 +26°C° 0 mm 5 m/S 744 mmHg 61%
    12:00 +27°C° 0.2 mm 6 m/S 743 mmHg 59%
    13:00 +28°C° 0.2 mm 6 m/S 743 mmHg 57%
    14:00 +28°C° 0.2 mm 7 m/S 743 mmHg 55%
    15:00 +27°C° 1.1 mm 6 m/S 743 mmHg 63%
    16:00 +26°C° 1.1 mm 5 m/S 743 mmHg 70%
    17:00 +25°C° 1.1 mm 4 m/S 743 mmHg 78%
    18:00 +22°C° 0.3 mm 3 m/S 744 mmHg 82%
    19:00 +21°C° 0.3 mm 3 m/S 744 mmHg 85%
    20:00 +20°C° 0.3 mm 2 m/S 744 mmHg 89%
    21:00 +19°C° 0 mm 2 m/S 745 mmHg 91%
    22:00 +18°C° 0 mm 2 m/S 745 mmHg 93%
    23:00 +18°C° 0 mm 2 m/S 745 mmHg 95%

    30 Mai, Donnerstag

    Zeit Temperatur Niederschläge Wind Luftdruck Luftfeuchtigkeit
    00:00 +17°C° 0 mm 2 m/S 746 mmHg 96%
    01:00 +17°C° 0 mm 2 m/S 746 mmHg 97%
    02:00 +17°C° 0 mm 3 m/S 746 mmHg 98%
    03:00 +17°C° 0 mm 3 m/S 747 mmHg 97%
    04:00 +16°C° 0 mm 3 m/S 748 mmHg 96%
    05:00 +16°C° 0 mm 3 m/S 748 mmHg 95%
    06:00 +16°C° 0 mm 3 m/S 749 mmHg 94%
    07:00 +16°C° 0 mm 3 m/S 749 mmHg 93%
    08:00 +16°C° 0 mm 3 m/S 749 mmHg 93%
    09:00 +17°C° 0 mm 3 m/S 750 mmHg 88%
    10:00 +18°C° 0 mm 3 m/S 750 mmHg 84%
    11:00 +18°C° 0 mm 3 m/S 751 mmHg 79%
    12:00 +19°C° 0 mm 3 m/S 751 mmHg 77%
    13:00 +19°C° 0 mm 3 m/S 751 mmHg 74%
    14:00 +20°C° 0 mm 3 m/S 751 mmHg 71%
    15:00 +20°C° 0 mm 3 m/S 751 mmHg 72%
    16:00 +20°C° 0 mm 3 m/S 751 mmHg 73%
    17:00 +20°C° 0 mm 3 m/S 752 mmHg 74%
    18:00 +19°C° 0 mm 3 m/S 752 mmHg 78%
    19:00 +17°C° 0 mm 2 m/S 752 mmHg 83%
    20:00 +16°C° 0 mm 2 m/S 752 mmHg 88%
    21:00 +16°C° 0 mm 2 m/S 752 mmHg 90%
    22:00 +15°C° 0 mm 2 m/S 752 mmHg 93%
    23:00 +14°C° 0 mm 1 m/S 752 mmHg 95%
    Mehr zeigen